Weather History for Moriarty, NM

Change the Weather History Date:

Wednesday, December 18, 2013

  Actual Average (KABQ) Record (KABQ)
Temperature  
Mean Temperature 35 °F 36 °F  
Max Temperature 50 °F 45 °F 65 °F (1980)
Min Temperature 20 °F 26 °F 6 °F (1971)
Degree Days  
Heating Degree Days 30 29  
Month to date heating degree days 503  
Since 1 July heating degree days 1370  
Cooling Degree Days 0 0  
Month to date cooling degree days 0  
Year to date cooling degree days 1322  
Moisture  
Dew Point 24 °F    
Average Humidity 74    
Maximum Humidity 93    
Minimum Humidity 37    
Precipitation  
Precipitation 0.00 in 0.02 in 0.57 in (1919)
Month to date precipitation 0.30  
Year to date precipitation 9.25  
Snow  
Snow 0.00 in - - ()
Month to date snowfall  
Since 1 July snowfall  
Snow Depth -    
Sea Level Pressure  
Sea Level Pressure 30.14 in    
Wind  
Wind Speed 3 mph (NNE)    
Max Wind Speed 8 mph    
Max Gust Speed -    
Visibility 10 miles    
Events      
T = Trace of Precipitation, MM = Missing Value Source: NWS Daily Summary

Daily Weather History Graph

Daily Weather History Graph

Search for Another Location

Airport:

Trip Planner

Search our weather history database for the weather conditions in past years. The results will help you decide how hot, cold, wet, or windy it might be!

Date:

Astronomy

Dec. 18, 2013 Rise Set
Actual Time 7:06 AM MST 4:55 PM MST
Civil Twilight 6:38 AM MST 5:23 PM MST
Nautical Twilight 6:06 AM MST 5:54 PM MST
Astronomical Twilight 5:35 AM MST 6:25 PM MST
Moon 6:26 PM MST (12/18) 7:51 AM MST (12/18)
Length of Visible Light 10h 44m
Length of Day
9h 48m
Full, 98% of the Moon is Illuminated
Dec 18
Full
Dec 25
Last Quarter
Jan 1
New
Jan 7
First Quarter
Jan 15
Full

Hourly Weather History & Observations

Time (MST) Temp. Windchill Dew Point Humidity Pressure Visibility Wind Dir Wind Speed Gust Speed Precip Events Conditions
12:15 AM 24.8 °F 20.5 °F 22.1 °F 89% 30.32 in 10.0 mi NE 3.5 mph - N/A   Clear
12:35 AM 23.2 °F 18.7 °F 21.2 °F 92% 30.32 in 10.0 mi NNE 3.5 mph - N/A   Clear
12:55 AM 23.0 °F - 20.8 °F 91% 30.31 in 10.0 mi Calm Calm - N/A   Clear
1:15 AM 22.5 °F 17.8 °F 20.5 °F 92% 30.30 in 10.0 mi North 3.5 mph - N/A   Clear
1:35 AM 21.9 °F - 20.1 °F 93% 30.29 in 10.0 mi Calm Calm - N/A   Clear
1:55 AM 22.1 °F 15.9 °F 19.9 °F 91% 30.29 in 10.0 mi North 4.6 mph - N/A   Clear
2:15 AM 21.9 °F 17.2 °F 19.9 °F 92% 30.29 in 10.0 mi North 3.5 mph - N/A   Clear
2:35 AM 21.6 °F 16.8 °F 19.2 °F 91% 30.29 in 10.0 mi NNE 3.5 mph - N/A   Clear
2:55 AM 21.4 °F 16.6 °F 19.4 °F 92% 30.28 in 10.0 mi NNE 3.5 mph - N/A   Clear
3:15 AM 20.7 °F - 18.9 °F 93% 30.28 in 10.0 mi Calm Calm - N/A   Clear
3:35 AM 20.3 °F 12.5 °F 18.5 °F 93% 30.27 in 10.0 mi North 5.8 mph - N/A   Clear
3:55 AM 20.3 °F - 18.1 °F 91% 30.27 in 10.0 mi Calm Calm - N/A   Clear
4:15 AM 21.0 °F 16.2 °F 18.7 °F 91% 30.26 in 10.0 mi East 3.5 mph - N/A   Clear
4:35 AM 21.2 °F 13.6 °F 18.7 °F 90% 30.25 in 10.0 mi NE 5.8 mph - N/A   Clear
4:55 AM 21.2 °F 13.6 °F 18.9 °F 91% 30.23 in 10.0 mi NNE 5.8 mph - N/A   Clear
5:15 AM 21.2 °F 14.9 °F 19.0 °F 91% 30.23 in 10.0 mi NE 4.6 mph - N/A   Clear
5:35 AM 21.2 °F 16.4 °F 18.7 °F 90% 30.23 in 10.0 mi NE 3.5 mph - N/A   Clear
5:55 AM 21.2 °F 16.4 °F 18.5 °F 89% 30.23 in 10.0 mi NNE 3.5 mph - N/A   Clear
6:15 AM 21.2 °F - 18.3 °F 89% 30.23 in 10.0 mi Calm Calm - N/A   Clear
6:35 AM 21.0 °F 16.2 °F 18.5 °F 90% 30.23 in 10.0 mi SSE 3.5 mph - N/A   Clear
6:55 AM 20.3 °F 13.8 °F 18.1 °F 91% 30.23 in 10.0 mi SSW 4.6 mph - N/A   Clear
7:15 AM 20.1 °F - 18.0 °F 91% 30.23 in 10.0 mi Calm Calm - N/A   Clear
7:35 AM 21.0 °F - 18.7 °F 91% 30.23 in 10.0 mi Calm Calm - N/A   Clear
7:55 AM 22.8 °F - 20.7 °F 91% 30.23 in 10.0 mi Calm Calm - N/A   Clear
8:15 AM 25.2 °F - 22.5 °F 89% 30.23 in 10.0 mi Calm Calm - N/A   Clear
8:35 AM 27.9 °F - 24.1 °F 86% 30.23 in 10.0 mi Calm Calm - N/A   Clear
8:55 AM 31.6 °F 28.3 °F 25.5 °F 78% 30.22 in 10.0 mi North 3.5 mph - N/A   Clear
9:15 AM 32.7 °F 27.3 °F 26.2 °F 77% 30.22 in 10.0 mi North 5.8 mph - N/A   Clear
9:35 AM 35.1 °F 29.3 °F 27.5 °F 74% 30.22 in 10.0 mi North 6.9 mph - N/A   Clear
9:55 AM 37.4 °F 31.4 °F 27.5 °F 67% 30.22 in 10.0 mi North 8.1 mph - N/A   Clear
10:15 AM 39.9 °F 35.1 °F 27.1 °F 60% 30.21 in 10.0 mi North 6.9 mph - N/A   Clear
10:35 AM 41.7 °F 38.0 °F 25.2 °F 52% 30.20 in 10.0 mi NNE 5.8 mph - N/A   Clear
10:55 AM 42.6 °F 39.0 °F 23.9 °F 48% 30.19 in 10.0 mi North 5.8 mph - N/A   Clear
11:15 AM 44.1 °F 41.5 °F 25.0 °F 47% 30.18 in 10.0 mi North 4.6 mph - N/A   Clear
11:35 AM 44.8 °F 43.3 °F 25.5 °F 47% 30.16 in 10.0 mi North 3.5 mph - N/A   Clear
11:55 AM 46.0 °F - 25.5 °F 45% 30.15 in 10.0 mi Calm Calm - N/A   Clear
12:15 PM 47.3 °F - 25.5 °F 43% 30.14 in 10.0 mi Calm Calm - N/A   Clear
12:35 PM 48.2 °F - 25.5 °F 41% 30.12 in 10.0 mi Calm Calm - N/A   Clear
12:55 PM 48.2 °F - 24.4 °F 39% 30.11 in 10.0 mi Calm Calm - N/A   Clear
1:15 PM 48.4 °F - 24.6 °F 39% 30.08 in 10.0 mi Calm Calm - N/A   Clear
1:35 PM 49.5 °F - 24.3 °F 37% 30.08 in 10.0 mi Calm Calm - N/A   Clear
1:55 PM 50.0 °F - 26.6 °F 40% 30.07 in 10.0 mi North 3.5 mph - N/A   Clear
2:15 PM 50.2 °F - 26.2 °F 39% 30.07 in 10.0 mi North 4.6 mph - N/A   Clear
2:35 PM 50.2 °F - 27.1 °F 41% 30.06 in 10.0 mi NNE 5.8 mph - N/A   Clear
2:55 PM 49.8 °F - 28.0 °F 43% 30.06 in 10.0 mi North 5.8 mph - N/A   Clear
3:15 PM 48.6 °F - 28.2 °F 45% 30.06 in 10.0 mi North 4.6 mph - N/A   Clear
3:35 PM 46.9 °F - 30.2 °F 52% 30.05 in 10.0 mi NNE 3.5 mph - N/A   Clear
3:55 PM 46.4 °F - 28.0 °F 49% 30.05 in 10.0 mi Calm Calm - N/A   Clear
4:15 PM 43.9 °F 42.3 °F 29.1 °F 56% 30.05 in 10.0 mi North 3.5 mph - N/A   Clear
4:35 PM 42.8 °F - 28.0 °F 56% 30.05 in 10.0 mi Calm Calm - N/A   Clear
4:55 PM 41.4 °F 39.4 °F 27.1 °F 57% 30.05 in 10.0 mi NNE 3.5 mph - N/A   Clear
5:15 PM 37.0 °F 32.4 °F 26.6 °F 66% 30.04 in 10.0 mi NNE 5.8 mph - N/A   Clear
5:35 PM 35.6 °F 32.8 °F 26.2 °F 69% 30.04 in 10.0 mi ENE 3.5 mph - N/A   Clear
5:55 PM 36.5 °F 33.9 °F 25.5 °F 64% 30.03 in 10.0 mi NE 3.5 mph - N/A   Clear
6:15 PM 34.2 °F - 25.7 °F 71% 30.03 in 10.0 mi Calm Calm - N/A   Clear
6:35 PM 34.3 °F - 25.3 °F 70% 30.03 in 10.0 mi Calm Calm - N/A   Clear
6:55 PM 33.3 °F 28.9 °F 25.5 °F 73% 30.02 in 10.0 mi NE 4.6 mph - N/A   Clear
7:15 PM 32.7 °F - 25.5 °F 75% 30.03 in 10.0 mi Calm Calm - N/A   Clear
7:35 PM 32.0 °F - 25.7 °F 78% 30.02 in 10.0 mi Calm Calm - N/A   Clear
7:55 PM 31.5 °F - 26.4 °F 82% 30.00 in 10.0 mi Calm Calm - N/A   Clear
8:15 PM 31.6 °F 27.0 °F 27.3 °F 84% 30.02 in 10.0 mi SSE 4.6 mph - N/A   Clear
8:35 PM 31.8 °F 27.3 °F 26.6 °F 81% 30.02 in 10.0 mi South 4.6 mph - N/A   Clear
8:55 PM 31.3 °F - 26.4 °F 82% 30.02 in 10.0 mi Calm Calm - N/A   Clear
9:15 PM 29.3 °F 25.6 °F 26.4 °F 89% 30.01 in 10.0 mi North 3.5 mph - N/A   Clear
9:35 PM 29.7 °F 26.1 °F 25.9 °F 86% 30.00 in 10.0 mi North 3.5 mph - N/A   Clear
9:55 PM 30.4 °F - 25.5 °F 82% 30.00 in 10.0 mi Calm Calm - N/A   Clear
10:15 PM 28.8 °F - 25.2 °F 86% 30.00 in 10.0 mi Calm Calm - N/A   Clear
10:35 PM 27.9 °F - 24.6 °F 88% 29.99 in 10.0 mi Calm Calm - N/A   Clear
10:55 PM 28.2 °F - 24.6 °F 86% 29.99 in 10.0 mi Calm Calm - N/A   Clear
11:15 PM 28.0 °F - 24.3 °F 86% 29.99 in 10.0 mi Calm Calm - N/A   Clear
11:35 PM 26.6 °F - 23.7 °F 89% 29.98 in 10.0 mi Calm Calm - N/A   Clear
11:55 PM 26.2 °F 20.7 °F 23.4 °F 89% 29.97 in 10.0 mi NNW 4.6 mph - N/A   Clear